Regional Weather Roundup
Issued by NWS Sioux Falls, SD

Home | Current Version | Previous Version | Graphics & Text | Print | Product List | Glossary Off
Versions: 1 2 3 4 5 6 7 8 9 10 11 12 13 14 15 16 17 18 19 20 21 22 23 24 25 26 27 28 29 30 31 32 33 34 35 36 37 38 39 40 41 42 43 44 45 46 47 48 49 50

000
ASUS43 KFSD 152102
RWRFSD

WEATHER ROUNDUP FOR SE SOUTH DAKOTA/SW MINNESOTA/NW IOWA
NATIONAL WEATHER SERVICE SIOUX FALLS SD
400 PM CDT MON SEP 15 2014

NOTE: "FAIR" INDICATES FEW OR NO CLOUDS BELOW 12,000 FEET WITH NO
SIGNIFICANT WEATHER AND OR OBSTRUCTIONS TO VISIBILITY.


SDZ038>040-050-052>070-152200-
SOUTHEAST SOUTH DAKOTA

CITY           SKY/WX    TMP DP  RH WIND       PRES   REMARKS
CHAMBERLAIN    SUNNY     63  32  32 CALM      30.25F
HURON          SUNNY     64  33  31 N8        30.24F
MADISON        MOCLDY    59  39  47 N7        30.25F
MITCHELL       SUNNY     64  38  38 NE7       30.25F
SIOUX FALLS    FAIR      62  43  49 NW7       30.24F
WINNER         FAIR      64  34  32 CALM      30.25F
YANKTON        FAIR      63  39  42 CALM      30.25F
$$

MNZ071-072-080-081-089-090-097-098-152200-
SOUTHWEST MINNESOTA

CITY           SKY/WX    TMP DP  RH WIND       PRES   REMARKS
FAIRMONT       FAIR      63  36  36 N13G18    30.22S
JACKSON        PTSUNNY   61  37  41 VRB9G17   30.23F
LUVERNE        FAIR      63  36  36 NE5       30.24F
MARSHALL       FAIR      61  36  39 NW9       30.22F
MONTEVIDEO     FAIR      64  39  39 NW8       30.23F
PIPESTONE      FAIR      59  36  41 NW7       30.24F
REDWOOD FALLS  FAIR      62  37  39 NW9       30.21F
TRACY          FAIR      61  41  47 N10       30.23F
WINDOM         FAIR      61  37  41 N9        30.23S
WORTHINGTON    FAIR      59  37  44 NW7       30.24F
$$

IAZ001>003-012>014-020>022-031-032-NEZ013-014-SDZ071-152200-
NORTHWEST IOWA

CITY           SKY/WX    TMP DP  RH WIND       PRES   REMARKS
CHEROKEE       FAIR      61  41  47 N10       30.24S
DENISON        CLOUDY    59  46  63 N12       30.22S
ESTHERVILLE    CLOUDY    59  39  47 N8        30.22F
LE MARS        PTSUNNY   61  41  48 N9G15     30.25F
ORANGE CITY    PTSUNNY   63  36  36 N9        30.24F
SHELDON        PTSUNNY   61  41  48 NE8G15    30.23F
SIOUX CITY     CLOUDY    61  42  49 NE10      30.25F
SPENCER        FAIR      61  41  47 N10       30.24S
STORM LAKE     PTSUNNY   59  48  67 NE8       30.23F
$$

ABBREVIATIONS USED IN REMARKS
   TC - TEMPERATURE IN CELSIUS
  WCI - WIND CHILL INDEX
   HX - HEAT INDEX
  VSB - VISIBILITY



USA.gov is the U.S. government's official web portal to all federal, state and local government web resources and services.